Location: Banios
(43.0451°N, 0.2335°E)
Time: 11:00:54
(UTC+00:00)

Envisat - Pass Details

Date: 08 December 2021
Orbit: 764 x 766 km, 98.2° (Epoch: 20 January)

Event Time Altitude Azimuth Distance (km) Brightness Sun altitude
Rises 17:39:59 0° 220° (SW) 3,221 7.3 -13.4°
Reaches altitude 10° 17:44:03 10° 253° (WSW) 2,302 6.9 -14.1°
Maximum altitude 17:45:44 12° 272° (W) 2,197 6.5 -14.4°
Drops below altitude 10° 17:47:26 10° 292° (WNW) 2,308 6.2 -14.7°
Sets 17:51:33 0° 325° (NW) 3,242 6.5 -15.4°
